STARLINK-35174, 65615

Orbit data source: Space-Track

STARLINK-35174, 65615 is a payload satellite owned by SpaceX/Seattle (US) in SSO that was launched on Sat, 13 Sep 2025 UTC via an FALCON 9 launch vehicle from the Air Force Eastern Test Range (AFETR). Payload-class satellites include a variety of spacecraft equipped with specific instruments for various scientific and technological missions. These include communications satellites like Starlink; space stations such as the ISS; scientific satellites like the Hubble; Earth observation satellites from companies like Planet Labs, Umbra, and HawkEye 360; GPS; miniature CubeSats for education and research; and military/defense satellites.

Loading next visibility...
Identifier
65615, 2025-207Z
Orbit
SSO
Country
Flag of USUS
Related business
Manufacturer
SpaceX/Seattle
Mission
Operational Commercial Communications
Bus & Motor
STARLINK V2MO, Unknown motor
Mass
575 kg wet, ~530 kg dry
Launch date (UTC)
2025-09-13 (9 months ago)
Launch vehicle
FALCON 9
Launch site
Air Force Eastern Test Range (AFETR)
Object type
Payload
Rocket body
Debris
Shape & HBR
Box + 2 Pan, 17.7 m
Radar Cross Section
36.964 m², Large (>1 m²)

Expand to show TLE details & history
Last TLE update: 23 hours ago

TLE from 23 hours ago
0 STARLINK-35174
1 65615U 25207Z   26166.15339631  .00003466  00000-0  24406-3 0  9999
2 65615  97.3569 233.7668 0001668  77.5680 282.5734 15.05656956 42929
Epoch: 2026-06-15T03:40Z
TLE epoch observation values (Epoch: 2026-06-15T03:40:53.441Z)
Latitude
-0.00001°
Longitude
-84.89974°
Altitude
552.311 km
Speed
7.586 km/s
True Right ascension
15h 35m 04s
True Declination
0° 00' 00"
Sunlit
Object was in full shadow at epoch
Visualization orbit readout
Latitude
Unknown
Longitude
Unknown
Altitude
Unknown
Speed
Unknown
Apparent Right ascension
Unknown
Apparent Declination
Unknown
Sunlit
N/A
Visualization observer readout
Local Sidereal Time
13:36:01
Azimuth
Unknown
Elevation
Unknown
Doppler factor
Unknown
Orbital elements
Apogee altitude
547.628 km
Perigee altitude
545.318 km
Semi-major axis
6,924.61 km
Eccentricity
0.00017
Inclination
97.3569°
RAAN
233.7668°
Arg. of periapsis
77.568°
True anomaly
282.55474°
Mean anomaly
282.5734°
Eccentric anomaly
282.56407°
Mean motion
3.76661 °/min
Orbital period
95.58 mins
BSTAR
0.00024406
Loading maneuver chart data...
Computing Atmospheric mass density...
Loading historical data...
Loading historical data...
Loading historical data...
Loading historical data...
Loading historical data...
Loading historical data...
Loading historical data...

Documentation

Showing up to 5 results
|